Location: *
(58.4167°N, 22.5000°E)
Time: 09:39:07
(UTC+00:00)

COSMO-SKYMED 1 - Pass Details

Date: 22 September 2019
Orbit: 621 x 623 km, 97.9° (Epoch: 19 October)

Event Time Altitude Azimuth Distance (km) Brightness Sun altitude
Rises 17:40:17 0° 13° (NNE) 2,920 6.1 -9.8°
Reaches altitude 10° 17:42:32 10° 8° (N) 2,009 5.3 -10.1°
Maximum altitude 17:46:43 46° 295° (WNW) 847 3.8 -10.6°
Drops below altitude 10° 17:50:51 10° 223° (SW) 1,994 5.5 -11.1°
Sets 17:53:05 0° 217° (SW) 2,896 6.2 -11.4°
